EDT,Max TemperatureF,Mean TemperatureF,Min TemperatureF,Max Dew PointF,MeanDew PointF,Min DewpointF,Max Humidity, Mean Humidity, Min Humidity, Max Sea Level PressureIn, Mean Sea Level PressureIn, Min Sea Level PressureIn, Max VisibilityMiles, Mean VisibilityMiles, Min VisibilityMiles, Max Wind SpeedMPH, Mean Wind SpeedMPH, Max Gust SpeedMPH,PrecipitationIn, CloudCover, Events, WindDirDegrees
2012-4-1,64,53,42,50,47,39,87,68,59,29.77,29.72,29.69,10,7,3,7,4,,0.00,5,,28
2012-4-2,59,50,42,37,35,32,76,56,42,30.01,29.97,29.91,10,10,10,16,14,22,0.00,1,,103
2012-4-3,66,57,48,48,41,36,66,59,49,29.94,29.89,29.82,10,10,10,10,8,16,0.00,3,,76
2012-4-4,62,54,46,36,31,27,66,43,26,29.97,29.91,29.85,10,10,10,10,9,16,0.00,0,,23
2012-4-5,53,46,39,30,28,27,70,47,35,30.06,30.02,29.97,10,10,10,13,8,18,0.00,0,,50
2012-4-6,57,44,32,27,23,19,60,39,27,30.30,30.25,30.22,10,10,10,12,7,,0.00,0,,77
2012-4-7,64,48,32,32,23,16,93,37,15,30.33,30.27,30.19,10,10,10,8,4,,0.00,0,,197
2012-4-8,59,52,46,39,28,19,76,44,22,30.22,30.20,30.13,10,10,10,22,13,29,0.00,0,,303
2012-4-9,57,52,46,39,25,19,71,36,23,29.98,29.95,29.90,10,10,10,24,12,34,0.00,1,,291
2012-4-10,37,36,35,23,20,18,60,51,45,30.09,30.04,29.99,10,10,10,14,12,28,0.00,8,,310
2012-4-11,50,37,24,30,27,21,86,52,37,30.25,30.22,30.14,10,10,10,12,6,18,0.00,2,,324
2012-4-12,57,42,26,34,28,25,100,51,29,30.29,30.22,30.17,10,10,10,10,3,16,0.00,1,,298
2012-4-13,64,47,30,32,27,23,93,48,22,30.24,30.19,30.10,10,10,10,12,4,22,0.00,1,,164
2012-4-14,60,55,50,55,50,46,88,79,63,30.02,29.97,29.90,10,9,3,8,3,,0.00,8,Rain,185
2012-4-15,75,63,62,61,58,55,88,76,53,29.81,29.80,29.79,10,9,5,20,9,25,0.00,8,Rain-Thunderstorm,223
2012-4-16,62,56,50,57,43,36,82,63,54,30.12,29.85,29.62,10,10,10,28,18,39,0.00,5,,242
2012-4-17,57,50,42,36,33,30,76,49,41,30.38,30.34,30.31,10,10,10,9,4,,0.00,2,,339
2012-4-18,68,52,35,39,35,28,75,47,33,30.25,30.14,29.99,10,10,10,13,8,18,0.00,1,,174
2012-4-19,75,64,53,48,44,39,77,48,27,30.00,29.94,29.82,10,10,10,14,5,21,0.00,6,,224
2012-4-20,66,55,44,50,46,41,94,75,52,29.86,29.74,29.68,10,8,4,12,10,18,0.00,5,Rain,274
2012-4-21,55,47,39,28,25,21,65,41,31,30.01,29.98,29.95,10,10,10,10,10,,0.00,0,,12
2012-4-22,50,44,37,28,26,23,65,51,35,30.02,30.01,29.99,10,10,10,18,11,24,0.00,3,,40
2012-4-23,53,45,37,23,17,12,52,31,21,29.95,29.87,29.79,10,10,10,23,12,37,0.00,0,,325
2012-4-24,59,54,48,28,24,21,46,31,23,29.74,29.72,29.70,10,10,10,20,12,29,0.00,0,,299
2012-4-25,53,46,39,48,40,28,87,69,50,29.79,29.76,29.69,10,9,5,12,4,,0.00,7,Rain,123
2012-4-26,55,50,39,48,40,21,94,70,32,30.06,29.83,29.65,10,9,5,18,7,30,0.00,6,,319
2012-4-27,53,42,30,21,20,18,64,38,26,30.27,30.22,30.16,10,10,10,7,2,,0.00,0,,97
2012-4-28,44,42,41,36,35,34,81,73,70,30.14,30.14,30.13,10,10,10,18,11,25,0.00,8,Rain,105
2012-4-29,62,50,39,34,32,30,75,44,30,30.28,30.24,30.17,10,10,10,17,11,25,0.00,0,,93
2012-4-30,62,53,44,61,56,41,94,90,82,30.00,29.93,29.88,10,6,2,8,6,,0.00,7,Rain,228